Retour au catalogue

FENGYUN 1C DEB *

LostPO
NORAD 47037·DEBRIS·🇨🇳 China

Lancé May 10, 1999 depuis Taiyuan Satellite Launch Center

Loading…

Prochains Passages (prochaines 24 heures)

TLE

PériméSource: Space-Track

Époque: Oct 4, 2023, 09:47 UTC

1 47037U 99025FBP 23277.40807963  .00004155  00000-0  29632-2 0  9993
2 47037  98.3199 337.3800 0211732  23.8840  37.7782 13.87666882580098

Suivez FENGYUN 1C DEB * en temps réel avec AllMySat

Download on the App Store